COSMOS 2251 DEB, 35015

Orbit data source: Space-Track

COSMOS 2251 DEB, 35015 is space debris in LEO originally from a launch on Wed, 16 Jun 1993 UTC launched from the Plesetsk Missile And Space Complex (PKMTR). The debris from Iridium 33, an American commercial communications satellite, has been tracked extensively since its accidental collision with the defunct Russian satellite Cosmos 2251 in 2009. This event, occurring at high speed in low Earth orbit (LEO), generated thousands of pieces of space debris, significantly increasing the risk of further collisions. The Iridium 33 debris cloud has impacted space traffic management and orbital debris mitigation strategies, making it a subject of ongoing study in space situational awareness.

Loading next visibility...
Identifier
35015, 1993-036AGC
Orbit
LEO
Country
Flag of CISCIS
Related business
Manufacturer
Unknown
Mission
Spacecraft
Bus & Motor
Unknown
Mass
Unknown
Launch date (UTC)
1993-06-16 (32 years ago)
Launch vehicle
Unknown
Launch site
Plesetsk Missile And Space Complex (PKMTR)
Object type
Payload
Rocket body
Debris
Shape & HBR
Unknown shape, 0.1 m
Radar Cross Section
Small (<0.1 m²)

Expand to show TLE details & history
Last TLE update: 5 days ago

TLE from 5 days ago
0 COSMOS 2251 DEB
1 35015U 93036AGC 25302.30978112  .00003683  00000-0  99457-3 0  9995
2 35015  73.9487 318.1713 0075834 198.3127 177.6700 14.46495213647987
Epoch: 2025-10-29T07:26Z
TLE epoch observation values (Epoch: 2025-10-29T07:26:05.088Z)
Latitude
15.36038°
Longitude
173.27438°
Altitude
792.965 km
Speed
7.43 km/s
True Right ascension
21h 30m 43s
True Declination
15° 16' 24"
Sunlit
Object was in daylight at epoch
Visualization orbit readout
Latitude
Unknown
Longitude
Unknown
Altitude
Unknown
Speed
Unknown
Apparent Right ascension
Unknown
Apparent Declination
Unknown
Sunlit
N/A
Visualization observer readout
Local Sidereal Time
08:20:07
Azimuth
Unknown
Elevation
Unknown
Doppler factor
Unknown
Orbital elements
Apogee altitude
788.678 km
Perigee altitude
680.799 km
Semi-major axis
7,112.875 km
Eccentricity
0.00758
Inclination
73.9487°
RAAN
318.1713°
Arg. of periapsis
198.3127°
True anomaly
177.705°
Mean anomaly
177.67°
Eccentric anomaly
177.68753°
Mean motion
3.61806 °/min
Orbital period
99.5 mins
BSTAR
0.00099457

Documentation

Showing up to 5 results
|